Weather History for Plattsburgh, NY

Change the Weather History Date:

Sunday, December 9, 2012

  Actual Average Record
Temperature  
Mean Temperature 36 °F 27 °F  
Max Temperature 43 °F 35 °F 55 °F (1966)
Min Temperature 28 °F 19 °F -10 °F (1976)
Degree Days  
Heating Degree Days 29 38  
Month to date heating degree days 261 326  
Since 1 July heating degree days 1824 1960  
Moisture  
Dew Point 27 °F    
Average Humidity 75    
Maximum Humidity 85    
Minimum Humidity 64    
Precipitation  
Precipitation 0.01 in - 0.48 in (1963)
Month to date precipitation 0.47  
Year to date precipitation 25.05  
Sea Level Pressure  
Sea Level Pressure 30.21 in    
Wind  
Wind Speed 6 mph (NNW)    
Max Wind Speed 16 mph    
Max Gust Speed 21 mph    
Visibility 10 miles    
Events Snow    
T = Trace of Precipitation, MM = Missing Value Source: NWS Daily Summary

Daily Weather History Graph

Daily Weather History Graph

Search for Another Location

Airport:

Trip Planner

Search our weather history database for the weather conditions in past years. The results will help you decide how hot, cold, wet, or windy it might be!

Date:

Astronomy

Dec. 09, 2012 Rise Set
Actual Time 7:19 AM EST 4:13 PM EST
Civil Twilight 6:46 AM EST 4:46 PM EST
Nautical Twilight 6:09 AM EST 5:23 PM EST
Astronomical Twilight 5:33 AM EST 5:58 PM EST
Moon 2:41 AM EST (12/9) 1:25 PM EST (12/9)
Length of Visible Light 10h 00m
Length of Day
8h 54m
Waning Crescent, 19% of the Moon is Illuminated
Dec 9
Waning Crescent
Dec 13
New
Dec 20
First Quarter
Dec 28
Full
Jan 4
Last Quarter

Hourly Weather History & Observations

Time (EST) Temp. Windchill Dew Point Humidity Pressure Visibility Wind Dir Wind Speed Gust Speed Precip Events Conditions
12:11 AM 42.8 °F 38.6 °F 35.6 °F 76% 29.98 in 10.0 mi WNW 6.9 mph - 0.00 in   Overcast
12:21 AM 42.8 °F 38.6 °F 33.8 °F 70% 29.99 in 10.0 mi West 6.9 mph - 0.00 in   Overcast
12:34 AM 42.8 °F 38.0 °F 33.8 °F 70% 30.00 in 10.0 mi West 8.1 mph - 0.00 in   Overcast
12:53 AM 42.1 °F 37.7 °F 33.1 °F 70% 30.03 in 10.0 mi West 6.9 mph - 0.00 in   Overcast
1:51 AM 41.0 °F 36.4 °F 32.0 °F 70% 30.06 in 10.0 mi Variable 6.9 mph - N/A   Overcast
1:53 AM 41.0 °F 36.4 °F 32.0 °F 70% 30.07 in 10.0 mi NW 6.9 mph - N/A   Overcast
2:26 AM 41.0 °F 39.0 °F 30.2 °F 65% 30.09 in 10.0 mi WNW 3.5 mph - N/A   Overcast
2:45 AM 39.2 °F 34.2 °F 30.2 °F 70% 30.10 in 10.0 mi NW 6.9 mph - N/A   Overcast
2:53 AM 39.9 °F 36.7 °F 30.9 °F 70% 30.11 in 10.0 mi NW 4.6 mph - N/A   Overcast
3:53 AM 39.0 °F 36.8 °F 30.9 °F 73% 30.13 in 10.0 mi NW 3.5 mph - N/A   Overcast
4:23 AM 39.2 °F 35.9 °F 30.2 °F 70% 30.14 in 10.0 mi NW 4.6 mph - N/A   Overcast
4:53 AM 37.9 °F 32.7 °F 30.0 °F 73% 30.17 in 10.0 mi NW 6.9 mph - N/A   Overcast
5:11 AM 37.4 °F - 30.2 °F 75% 30.16 in 10.0 mi Calm Calm - N/A   Overcast
5:53 AM 37.0 °F - 30.0 °F 76% 30.21 in 10.0 mi Calm Calm - N/A   Mostly Cloudy
6:26 AM 35.6 °F 29.9 °F 28.4 °F 75% 30.22 in 10.0 mi NNW 6.9 mph - N/A   Overcast
6:36 AM 33.8 °F 26.4 °F 28.4 °F 81% 30.23 in 10.0 mi NNW 9.2 mph - N/A   Mostly Cloudy
6:53 AM 34.0 °F 31.0 °F 27.0 °F 75% 30.25 in 10.0 mi WNW 3.5 mph - N/A   Scattered Clouds
7:18 AM 30.2 °F 23.4 °F 26.6 °F 86% 30.26 in 10.0 mi NNW 6.9 mph - N/A   Mostly Cloudy
7:39 AM 30.2 °F 23.4 °F 24.8 °F 80% 30.26 in 10.0 mi NNW 6.9 mph - N/A   Scattered Clouds
7:53 AM 28.9 °F 22.8 °F 25.0 °F 85% 30.29 in 10.0 mi North 5.8 mph - N/A   Clear
8:53 AM 33.1 °F 26.1 °F 26.1 °F 75% 30.31 in 10.0 mi North 8.1 mph - N/A   Clear
9:53 AM 33.1 °F 26.1 °F 25.0 °F 72% 30.33 in 10.0 mi North 8.1 mph - N/A   Clear
10:53 AM 33.1 °F 24.9 °F 24.1 °F 70% 30.33 in 10.0 mi NNE 10.4 mph - N/A   Clear
11:53 AM 32.0 °F 22.1 °F 23.0 °F 69% 30.32 in 10.0 mi NNE 13.8 mph - N/A   Clear
12:53 PM 33.1 °F 23.9 °F 23.0 °F 66% 30.32 in 10.0 mi North 12.7 mph - N/A   Mostly Cloudy
1:18 PM 32.0 °F 23.0 °F 24.8 °F 75% 30.31 in 10.0 mi NNE 11.5 mph - N/A   Mostly Cloudy
1:53 PM 30.9 °F 22.8 °F 23.0 °F 72% 30.31 in 10.0 mi NE 9.2 mph - N/A   Overcast
2:53 PM 30.0 °F 20.0 °F 23.0 °F 75% 30.32 in 10.0 mi North 12.7 mph - N/A   Overcast
3:53 PM 28.9 °F 21.1 °F 23.0 °F 78% 30.35 in 10.0 mi North 8.1 mph - N/A   Overcast
4:53 PM 28.9 °F 22.8 °F 23.0 °F 78% 30.33 in 10.0 mi NNW 5.8 mph - N/A   Overcast
5:53 PM 28.9 °F 22.8 °F 23.0 °F 78% 30.31 in 10.0 mi North 5.8 mph - N/A   Overcast
6:14 PM 28.4 °F 21.2 °F 23.0 °F 80% 30.29 in 10.0 mi NNW 6.9 mph - N/A   Overcast
6:53 PM 28.9 °F 25.2 °F 23.0 °F 78% 30.29 in 10.0 mi WNW 3.5 mph - N/A   Mostly Cloudy
7:35 PM 28.4 °F 23.3 °F 23.0 °F 80% 30.27 in 10.0 mi NW 4.6 mph - N/A   Mostly Cloudy
7:46 PM 28.4 °F 23.3 °F 23.0 °F 80% 30.26 in 10.0 mi NW 4.6 mph - N/A   Overcast
7:53 PM 28.9 °F 23.9 °F 23.0 °F 78% 30.27 in 10.0 mi NNW 4.6 mph - N/A   Overcast
8:53 PM 28.9 °F 23.9 °F 24.1 °F 82% 30.22 in 10.0 mi North 4.6 mph - N/A   Overcast
9:53 PM 30.0 °F 26.5 °F 25.0 °F 82% 30.17 in 10.0 mi NW 3.5 mph - N/A   Overcast
10:53 PM 30.0 °F - 25.0 °F 82% 30.12 in 10.0 mi Calm Calm - N/A   Overcast
11:53 PM 28.9 °F - 26.1 °F 89% 30.08 in 5.0 mi Calm Calm - 0.01 in Snow Light Snow